DLH7VX LKPR-EDDM

Flight info

Callsign DLH7VX
Flight time 0h 37m
Altitude 26000
Route DOBEN DCT NIRGO T108 LANDU LANDU2B
Aircraft A320/M-SDE2E3FGIJ1LORWXYZ/HB1

Departure

Time 2026-05-06 18:16
Airport Václav Havel Airport Prague (LKPR)

Arrival

Time 2026-05-06 18:53
Airport Munich Airport (EDDM)
Time Latitude Longitude Altitude Speed Heading
2026-05-06 17:28 50.10561 14.26348 1171 ft 0 kts 34°
2026-05-06 17:58 50.10551 14.26338 1173 ft 4 kts 41°
2026-05-06 17:58 50.10535 14.26306 1170 ft 4 kts 68°
2026-05-06 17:58 50.10529 14.26267 1169 ft 4 kts 96°
2026-05-06 17:59 50.10531 14.26247 1170 ft 3 kts 106°
2026-05-06 17:59 50.10519 14.26283 1171 ft 4 kts 125°
2026-05-06 17:59 50.10509 14.26304 1170 ft 1 kts 124°
2026-05-06 18:01 50.10491 14.26344 1169 ft 7 kts 124°
2026-05-06 18:02 50.10462 14.26411 1173 ft 9 kts 124°
2026-05-06 18:02 50.10427 14.26490 1170 ft 9 kts 124°
2026-05-06 18:02 50.10389 14.26577 1173 ft 11 kts 124°
2026-05-06 18:02 50.10335 14.26608 1174 ft 9 kts 210°
2026-05-06 18:03 50.10291 14.26561 1173 ft 7 kts 215°
2026-05-06 18:03 50.10237 14.26531 1176 ft 6 kts 156°
2026-05-06 18:03 50.10197 14.26602 1176 ft 12 kts 127°
2026-05-06 18:03 50.10138 14.26725 1177 ft 17 kts 127°
2026-05-06 18:04 50.10071 14.26863 1188 ft 15 kts 127°
2026-05-06 18:04 50.10022 14.26965 1194 ft 8 kts 127°
2026-05-06 18:04 50.10017 14.26975 1195 ft 0 kts 127°
2026-05-06 18:06 50.10013 14.26982 1195 ft 3 kts 127°
2026-05-06 18:06 50.10002 14.27005 1196 ft 7 kts 127°
2026-05-06 18:06 50.09966 14.27080 1198 ft 10 kts 127°
2026-05-06 18:07 50.09923 14.27117 1202 ft 5 kts 212°
2026-05-06 18:07 50.09914 14.27058 1203 ft 5 kts 262°
2026-05-06 18:07 50.09906 14.26971 1205 ft 13 kts 261°
2026-05-06 18:07 50.09890 14.26804 1205 ft 16 kts 262°
2026-05-06 18:08 50.09876 14.26646 1206 ft 13 kts 262°
2026-05-06 18:08 50.09870 14.26503 1203 ft 14 kts 277°
2026-05-06 18:08 50.09920 14.26359 1199 ft 16 kts 307°
2026-05-06 18:08 50.09991 14.26215 1196 ft 18 kts 307°
2026-05-06 18:09 50.10077 14.26033 1191 ft 23 kts 307°
2026-05-06 18:09 50.10164 14.25858 1186 ft 15 kts 308°
2026-05-06 18:09 50.10216 14.25763 1185 ft 9 kts 320°
2026-05-06 18:09 50.10257 14.25715 1185 ft 7 kts 327°
2026-05-06 18:10 50.10298 14.25684 1184 ft 7 kts 339°
2026-05-06 18:10 50.10345 14.25663 1183 ft 7 kts 348°
2026-05-06 18:10 50.10375 14.25658 1183 ft 3 kts 354°
2026-05-06 18:10 50.10404 14.25659 1183 ft 4 kts
2026-05-06 18:11 50.10405 14.25659 1183 ft 0 kts
2026-05-06 18:12 50.10425 14.25662 1183 ft 4 kts
2026-05-06 18:12 50.10452 14.25671 1182 ft 4 kts 13°
2026-05-06 18:12 50.10478 14.25661 1181 ft 4 kts 312°
2026-05-06 18:13 50.10478 14.25636 1182 ft 1 kts 254°
2026-05-06 18:13 50.10473 14.25611 1182 ft 8 kts 254°
2026-05-06 18:13 50.10463 14.25553 1182 ft 5 kts 257°
2026-05-06 18:13 50.10459 14.25525 1181 ft 0 kts 258°
2026-05-06 18:15 50.10459 14.25523 1181 ft 2 kts 258°
2026-05-06 18:15 50.10450 14.25451 1178 ft 9 kts 259°
2026-05-06 18:15 50.10423 14.25363 1175 ft 8 kts 202°
2026-05-06 18:15 50.10391 14.25388 1178 ft 7 kts 131°
2026-05-06 18:16 50.10235 14.25706 1185 ft 76 kts 127°
2026-05-06 18:16 50.09773 14.26662 1206 ft 141 kts 127°
2026-05-06 18:16 50.09117 14.28028 1639 ft 161 kts 126°
2026-05-06 18:16 50.08435 14.29427 2472 ft 162 kts 127°
2026-05-06 18:17 50.07755 14.30817 3258 ft 160 kts 127°
2026-05-06 18:17 50.07088 14.32203 3911 ft 160 kts 127°
2026-05-06 18:17 50.06400 14.33651 4303 ft 181 kts 129°
2026-05-06 18:17 50.05580 14.35398 4170 ft 226 kts 128°
2026-05-06 18:18 50.04572 14.37538 4143 ft 259 kts 128°
2026-05-06 18:18 50.03475 14.39812 4000 ft 264 kts 129°
2026-05-06 18:18 50.02353 14.42081 4003 ft 265 kts 128°
2026-05-06 18:18 50.01231 14.44357 4009 ft 266 kts 127°
2026-05-06 18:19 50.00421 14.46923 4002 ft 267 kts 103°
2026-05-06 18:19 50.00398 14.49800 3998 ft 269 kts 77°
2026-05-06 18:19 50.01190 14.52418 4007 ft 271 kts 51°
2026-05-06 18:19 50.02651 14.54313 4731 ft 276 kts 35°
2026-05-06 18:20 50.04223 14.56074 5719 ft 281 kts 37°
2026-05-06 18:20 50.05809 14.57910 6583 ft 288 kts 37°
2026-05-06 18:20 50.07430 14.59808 7441 ft 294 kts 37°
2026-05-06 18:20 50.09083 14.61744 8324 ft 300 kts 37°
2026-05-06 18:21 50.10895 14.63402 9166 ft 306 kts 20°
2026-05-06 18:21 50.12965 14.64162 9983 ft 308 kts
2026-05-06 18:21 50.15115 14.63927 10542 ft 319 kts 343°
2026-05-06 18:21 50.17241 14.62657 10794 ft 339 kts 331°
2026-05-06 18:22 50.19441 14.61042 10940 ft 356 kts 331°
2026-05-06 18:22 50.21701 14.59388 11071 ft 360 kts 331°
2026-05-06 18:22 50.23982 14.57738 11195 ft 366 kts 332°
2026-05-06 18:22 50.26374 14.56012 11331 ft 390 kts 332°
2026-05-06 18:23 50.28874 14.54137 11455 ft 403 kts 327°
2026-05-06 18:23 50.30963 14.51305 11580 ft 397 kts 303°
2026-05-06 18:23 50.32095 14.47467 12017 ft 387 kts 280°
2026-05-06 18:23 50.32398 14.43307 12797 ft 384 kts 267°
2026-05-06 18:24 50.32129 14.39172 13601 ft 381 kts 258°
2026-05-06 18:24 50.31645 14.35099 14328 ft 381 kts 257°
2026-05-06 18:24 50.31319 14.32387 14649 ft 386 kts 257°
2026-05-06 18:24 50.30787 14.28204 14870 ft 396 kts 254°
2026-05-06 18:25 50.29751 14.24223 15097 ft 397 kts 238°
2026-05-06 18:25 50.27990 14.20909 15319 ft 398 kts 221°
2026-05-06 18:25 50.25755 14.18345 15820 ft 400 kts 216°
2026-05-06 18:25 50.23474 14.15833 16403 ft 402 kts 216°
2026-05-06 18:26 50.21188 14.13309 17054 ft 402 kts 216°
2026-05-06 18:26 50.18905 14.10788 17729 ft 402 kts 216°
2026-05-06 18:26 50.16623 14.08268 18357 ft 402 kts 215°
2026-05-06 18:26 50.14338 14.05751 18954 ft 402 kts 215°
2026-05-06 18:27 50.12058 14.03245 19552 ft 401 kts 215°
2026-05-06 18:27 50.09782 14.00747 20161 ft 400 kts 215°
2026-05-06 18:27 50.07510 13.98252 20807 ft 399 kts 215°
2026-05-06 18:27 50.05274 13.95714 21412 ft 398 kts 216°
2026-05-06 18:28 50.03055 13.93120 21934 ft 400 kts 217°
2026-05-06 18:28 50.00838 13.90495 22475 ft 401 kts 217°
2026-05-06 18:28 49.98617 13.87869 23023 ft 401 kts 217°
2026-05-06 18:28 49.96394 13.85253 23538 ft 401 kts 217°
2026-05-06 18:29 49.94161 13.82645 24007 ft 402 kts 217°
2026-05-06 18:29 49.91957 13.80082 24443 ft 402 kts 217°
2026-05-06 18:29 49.89698 13.77467 24701 ft 408 kts 216°
2026-05-06 18:29 49.87403 13.74827 24943 ft 413 kts 216°
2026-05-06 18:30 49.85079 13.72155 25190 ft 418 kts 217°
2026-05-06 18:30 49.82737 13.69456 25449 ft 421 kts 217°
2026-05-06 18:30 49.80375 13.66736 25708 ft 425 kts 217°
2026-05-06 18:30 49.78001 13.64005 25965 ft 426 kts 217°
2026-05-06 18:31 49.75620 13.61265 26210 ft 427 kts 217°
2026-05-06 18:31 49.73235 13.58529 26461 ft 428 kts 217°
2026-05-06 18:31 49.70802 13.55747 26725 ft 429 kts 217°
2026-05-06 18:31 49.68432 13.53044 26983 ft 429 kts 217°
2026-05-06 18:32 49.66040 13.50324 27239 ft 426 kts 217°
2026-05-06 18:32 49.63654 13.47616 27509 ft 426 kts 217°
2026-05-06 18:32 49.61238 13.44878 27714 ft 425 kts 217°
2026-05-06 18:32 49.58887 13.42223 27756 ft 424 kts 217°
2026-05-06 18:33 49.56508 13.39543 27755 ft 423 kts 217°
2026-05-06 18:33 49.54132 13.36864 27755 ft 423 kts 217°
2026-05-06 18:33 49.51760 13.34188 27755 ft 423 kts 217°
2026-05-06 18:33 49.49385 13.31506 27740 ft 424 kts 217°
2026-05-06 18:34 49.47008 13.28830 27159 ft 421 kts 216°
2026-05-06 18:34 49.44657 13.26189 26508 ft 417 kts 217°
2026-05-06 18:34 49.42303 13.23597 25872 ft 415 kts 213°
2026-05-06 18:34 49.39756 13.21541 25251 ft 413 kts 207°
2026-05-06 18:35 49.37153 13.19566 24645 ft 425 kts 207°
2026-05-06 18:35 49.34487 13.17546 24041 ft 429 kts 207°
2026-05-06 18:35 49.31813 13.15525 23456 ft 428 kts 207°
2026-05-06 18:35 49.29154 13.13488 22788 ft 426 kts 208°
2026-05-06 18:36 49.26518 13.11431 22221 ft 424 kts 208°
2026-05-06 18:36 49.23906 13.09376 21689 ft 421 kts 208°
2026-05-06 18:36 49.21311 13.07328 21157 ft 418 kts 208°
2026-05-06 18:36 49.18740 13.05295 20637 ft 414 kts 208°
2026-05-06 18:37 49.16191 13.03280 20128 ft 411 kts 208°
2026-05-06 18:37 49.13654 13.01290 19632 ft 409 kts 208°
2026-05-06 18:37 49.11132 12.99325 19142 ft 407 kts 208°
2026-05-06 18:37 49.08637 12.97323 18667 ft 404 kts 212°
2026-05-06 18:38 49.06464 12.94645 18197 ft 401 kts 223°
2026-05-06 18:38 49.04275 12.92056 17679 ft 399 kts 209°
2026-05-06 18:38 49.01678 12.90596 17149 ft 399 kts 195°
2026-05-06 18:38 48.98982 12.89598 16618 ft 397 kts 195°
2026-05-06 18:39 48.96305 12.88622 16103 ft 395 kts 195°
2026-05-06 18:39 48.93642 12.87645 15594 ft 393 kts 195°
2026-05-06 18:39 48.90989 12.86661 15093 ft 391 kts 195°
2026-05-06 18:40 48.85817 12.84279 14116 ft 387 kts 204°
2026-05-06 18:40 48.83364 12.82612 13603 ft 386 kts 205°
2026-05-06 18:40 48.80924 12.80935 13023 ft 384 kts 205°
2026-05-06 18:40 48.78510 12.79260 12448 ft 379 kts 207°
2026-05-06 18:41 48.76282 12.77183 11882 ft 375 kts 212°
2026-05-06 18:41 48.73971 12.75398 11568 ft 371 kts 205°
2026-05-06 18:41 48.71668 12.73807 11326 ft 359 kts 205°
2026-05-06 18:41 48.69433 12.72270 11090 ft 355 kts 205°
2026-05-06 18:42 48.67315 12.70326 10672 ft 350 kts 220°
2026-05-06 18:42 48.65587 12.67810 9969 ft 350 kts 224°
2026-05-06 18:42 48.63871 12.65187 9233 ft 351 kts 225°
2026-05-06 18:42 48.62167 12.62571 8646 ft 345 kts 225°
2026-05-06 18:43 48.60519 12.60038 8364 ft 330 kts 226°
2026-05-06 18:43 48.58971 12.57577 8080 ft 318 kts 227°
2026-05-06 18:43 48.57481 12.55137 7803 ft 315 kts 227°
2026-05-06 18:43 48.56008 12.52698 7382 ft 316 kts 228°
2026-05-06 18:44 48.54518 12.50229 7013 ft 319 kts 228°
2026-05-06 18:44 48.53019 12.47751 6650 ft 319 kts 228°
2026-05-06 18:44 48.51528 12.45293 6283 ft 317 kts 228°
2026-05-06 18:44 48.50201 12.42607 6005 ft 322 kts 239°
2026-05-06 18:45 48.49133 12.39611 5995 ft 331 kts 242°
2026-05-06 18:45 48.48062 12.36507 5983 ft 335 kts 243°
2026-05-06 18:45 48.46999 12.33407 5991 ft 324 kts 243°
2026-05-06 18:45 48.46004 12.30500 6010 ft 300 kts 242°
2026-05-06 18:46 48.45084 12.27806 6029 ft 279 kts 243°
2026-05-06 18:46 48.44220 12.25282 5907 ft 265 kts 243°
2026-05-06 18:46 48.43399 12.22896 5642 ft 247 kts 243°
2026-05-06 18:46 48.42637 12.20681 5425 ft 228 kts 244°
2026-05-06 18:47 48.41945 12.18682 5419 ft 203 kts 244°
2026-05-06 18:47 48.41331 12.16911 5418 ft 187 kts 244°
2026-05-06 18:47 48.40736 12.15188 5319 ft 181 kts 244°
2026-05-06 18:47 48.40159 12.13513 5117 ft 179 kts 245°
2026-05-06 18:48 48.39598 12.11888 4953 ft 176 kts 246°
2026-05-06 18:48 48.39039 12.10271 4764 ft 174 kts 246°
2026-05-06 18:48 48.38549 12.08645 4637 ft 165 kts 260°
2026-05-06 18:48 48.38457 12.06983 4519 ft 152 kts 269°
2026-05-06 18:49 48.38395 12.05463 4449 ft 146 kts 267°
2026-05-06 18:49 48.38307 12.03958 4311 ft 144 kts 266°
2026-05-06 18:49 48.38208 12.02477 4147 ft 141 kts 266°
2026-05-06 18:49 48.38105 12.01022 3971 ft 140 kts 265°
2026-05-06 18:50 48.37999 11.99555 3790 ft 142 kts 265°
2026-05-06 18:50 48.37890 11.98080 3608 ft 142 kts 265°
2026-05-06 18:50 48.37778 11.96608 3437 ft 142 kts 264°
2026-05-06 18:50 48.37673 11.95136 3227 ft 142 kts 265°
2026-05-06 18:51 48.37562 11.93690 3032 ft 137 kts 265°
2026-05-06 18:51 48.37458 11.92291 2852 ft 134 kts 264°
2026-05-06 18:51 48.37354 11.90940 2702 ft 130 kts 263°
2026-05-06 18:51 48.37251 11.89587 2509 ft 128 kts 263°
2026-05-06 18:52 48.37155 11.88295 2305 ft 125 kts 263°
2026-05-06 18:52 48.37059 11.86976 2136 ft 126 kts 263°
2026-05-06 18:52 48.36962 11.85676 1990 ft 126 kts 261°
2026-05-06 18:52 48.36855 11.84341 1828 ft 132 kts 263°
2026-05-06 18:53 48.36753 11.82949 1648 ft 131 kts 262°
2026-05-06 18:53 48.36652 11.81645 1486 ft 117 kts 263°
2026-05-06 18:53 48.36571 11.80594 1485 ft 82 kts 263°
2026-05-06 18:53 48.36523 11.79979 1472 ft 38 kts 262°
2026-05-06 18:54 48.36437 11.79676 1478 ft 28 kts 235°
2026-05-06 18:54 48.36331 11.79460 1479 ft 23 kts 233°
2026-05-06 18:54 48.36243 11.79310 1480 ft 17 kts 208°
2026-05-06 18:54 48.36124 11.79308 1474 ft 18 kts 174°
2026-05-06 18:55 48.35992 11.79332 1481 ft 20 kts 172°
2026-05-06 18:55 48.35905 11.79381 1482 ft 11 kts 119°
2026-05-06 18:55 48.35895 11.79492 1480 ft 10 kts 124°
2026-05-06 18:55 48.35834 11.79524 1483 ft 9 kts 173°
2026-05-06 18:56 48.35775 11.79534 1475 ft 8 kts 173°
2026-05-06 18:56 48.35727 11.79543 1480 ft 6 kts 173°
2026-05-06 18:56 48.35689 11.79562 1475 ft 6 kts 130°
2026-05-06 18:56 48.35689 11.79640 1472 ft 8 kts 83°
2026-05-06 18:57 48.35693 11.79691 1468 ft 2 kts 84°
2026-05-06 18:57 48.35693 11.79695 1494 ft 0 kts 84°